Time,TemperatureF,DewpointF,PressureIn,WindDirection,WindDirectionDegrees,WindSpeedMPH,WindSpeedGustMPH,Humidity,HourlyPrecipIn,Conditions,Clouds,dailyrainin,SolarRadiationWatts/m^2,SoftwareType,DateUTC
2013-03-27 00:05:00,50.7,47.0,30.02,WNW,288,0.0,6.0,86,0.00,,,0.00,0,weatherlink.com 1.10,2013-03-27 07:05:00,
2013-03-27 00:20:00,50.6,47.0,30.02,SSW,211,2.0,6.0,87,0.00,,,0.00,0,weatherlink.com 1.10,2013-03-27 07:20:00,
2013-03-27 00:35:00,50.7,47.0,30.02,SSW,213,5.0,5.0,88,0.00,,,0.00,0,weatherlink.com 1.10,2013-03-27 07:35:00,
2013-03-27 00:50:00,50.7,47.0,30.02,SSW,210,3.0,6.0,87,0.00,,,0.00,0,weatherlink.com 1.10,2013-03-27 07:50:00,
2013-03-27 01:05:00,50.9,47.0,30.01,WSW,242,5.0,5.0,85,0.00,,,0.00,0,weatherlink.com 1.10,2013-03-27 08:05:00,
2013-03-27 01:20:00,51.0,47.0,30.01,SW,221,0.0,5.0,85,0.00,,,0.00,0,weatherlink.com 1.10,2013-03-27 08:20:00,
2013-03-27 01:35:00,50.9,47.0,30.01,SW,223,0.0,4.0,85,0.00,,,0.00,0,weatherlink.com 1.10,2013-03-27 08:35:00,
2013-03-27 01:50:00,50.6,47.0,30.01,SSW,212,3.0,5.0,86,0.00,,,0.00,0,weatherlink.com 1.10,2013-03-27 08:50:00,
2013-03-27 02:05:00,50.5,47.0,30.01,WSW,240,0.0,2.0,87,0.00,,,0.00,0,weatherlink.com 1.10,2013-03-27 09:05:00,
2013-03-27 02:20:00,50.5,47.0,30.01,WSW,240,0.0,1.0,87,0.00,,,0.00,0,weatherlink.com 1.10,2013-03-27 09:20:00,
2013-03-27 02:35:00,50.5,47.0,30.00,WSW,239,0.0,0.0,87,0.00,,,0.00,0,weatherlink.com 1.10,2013-03-27 09:35:00,
2013-03-27 02:50:00,50.6,47.0,30.00,WSW,240,0.0,0.0,87,0.00,,,0.00,0,weatherlink.com 1.10,2013-03-27 09:50:00,
2013-03-27 03:05:00,50.8,47.0,29.99,WSW,239,0.0,0.0,87,0.00,,,0.00,0,weatherlink.com 1.10,2013-03-27 10:05:00,
2013-03-27 03:20:00,50.7,47.0,29.99,SSE,151,0.0,1.0,87,0.00,,,0.00,0,weatherlink.com 1.10,2013-03-27 10:20:00,
2013-03-27 03:36:00,50.6,47.0,29.99,SSE,151,0.0,1.0,87,0.00,,,0.00,0,weatherlink.com 1.10,2013-03-27 10:36:00,
2013-03-27 03:51:00,50.8,47.0,29.99,SSE,151,0.0,0.0,87,0.00,,,0.00,0,weatherlink.com 1.10,2013-03-27 10:51:00,
2013-03-27 04:06:00,51.0,47.0,29.99,SSE,155,1.0,2.0,87,0.00,,,0.00,0,weatherlink.com 1.10,2013-03-27 11:06:00,
2013-03-27 04:21:00,51.2,48.0,29.99,SSE,154,0.0,0.0,87,0.00,,,0.00,0,weatherlink.com 1.10,2013-03-27 11:21:00,
2013-03-27 04:36:00,51.5,48.0,29.99,SSE,154,0.0,0.0,86,0.00,,,0.00,0,weatherlink.com 1.10,2013-03-27 11:36:00,
2013-03-27 04:51:00,51.8,48.0,29.99,SSE,155,0.0,0.0,85,0.00,,,0.00,0,weatherlink.com 1.10,2013-03-27 11:51:00,
2013-03-27 05:06:00,51.9,47.0,29.99,SSE,155,0.0,1.0,84,0.00,,,0.00,0,weatherlink.com 1.10,2013-03-27 12:06:00,
2013-03-27 05:21:00,51.9,47.0,29.99,SSE,154,0.0,2.0,83,0.00,,,0.00,0,weatherlink.com 1.10,2013-03-27 12:21:00,
2013-03-27 05:36:00,52.0,47.0,29.99,SSE,154,0.0,1.0,83,0.00,,,0.00,0,weatherlink.com 1.10,2013-03-27 12:36:00,
2013-03-27 05:51:00,52.2,47.0,29.99,SSE,163,1.0,2.0,83,0.00,,,0.00,0,weatherlink.com 1.10,2013-03-27 12:51:00,
2013-03-27 06:06:00,52.2,47.0,29.99,South,189,2.0,3.0,82,0.00,,,0.00,0,weatherlink.com 1.10,2013-03-27 13:06:00,
2013-03-27 06:21:00,52.4,47.0,29.99,South,189,2.0,2.0,81,0.00,,,0.00,0,weatherlink.com 1.10,2013-03-27 13:21:00,
2013-03-27 06:36:00,52.5,47.0,29.99,SSE,154,0.0,4.0,81,0.00,,,0.00,0,weatherlink.com 1.10,2013-03-27 13:36:00,
2013-03-27 07:06:00,52.8,47.0,29.99,South,185,2.0,3.0,81,0.00,,,0.00,5,weatherlink.com 1.10,2013-03-27 14:06:00,
2013-03-27 07:36:00,53.2,48.0,30.00,SSE,166,2.0,3.0,82,0.00,,,0.00,46,weatherlink.com 1.10,2013-03-27 14:36:00,
2013-03-27 08:51:00,55.0,50.0,30.01,East,80,1.0,4.0,82,0.00,,,0.00,206,weatherlink.com 1.10,2013-03-27 15:51:00,
2013-03-27 09:06:00,56.3,50.0,30.01,SSE,154,0.0,4.0,79,0.00,,,0.00,373,weatherlink.com 1.10,2013-03-27 16:06:00,
2013-03-27 09:36:00,58.1,51.0,30.01,SE,130,2.0,5.0,76,0.00,,,0.00,461,weatherlink.com 1.10,2013-03-27 16:36:00,
2013-03-27 10:06:00,58.0,51.0,30.01,East,80,0.0,8.0,77,0.00,,,0.00,584,weatherlink.com 1.10,2013-03-27 17:06:00,
2013-03-27 10:21:00,58.7,51.0,30.02,ESE,105,4.0,5.0,75,0.00,,,0.00,316,weatherlink.com 1.10,2013-03-27 17:21:00,
2013-03-27 10:36:00,59.4,51.0,30.02,SE,130,0.0,4.0,73,0.00,,,0.00,355,weatherlink.com 1.10,2013-03-27 17:36:00,
2013-03-27 10:51:00,58.2,51.0,30.02,ESE,108,1.0,4.0,76,0.00,,,0.00,178,weatherlink.com 1.10,2013-03-27 17:51:00,
2013-03-27 11:06:00,57.8,51.0,30.02,NE,45,0.0,5.0,77,0.00,,,0.00,276,weatherlink.com 1.10,2013-03-27 18:06:00,
2013-03-27 11:21:00,57.7,50.0,30.03,NE,50,2.0,2.0,76,0.00,,,0.00,134,weatherlink.com 1.10,2013-03-27 18:21:00,
2013-03-27 11:36:00,58.6,51.0,30.02,East,87,1.0,2.0,75,0.00,,,0.00,265,weatherlink.com 1.10,2013-03-27 18:36:00,
2013-03-27 12:06:00,60.2,52.0,30.02,SSW,193,2.0,5.0,73,0.00,,,0.00,404,weatherlink.com 1.10,2013-03-27 19:06:00,
2013-03-27 12:21:00,60.1,52.0,30.02,South,191,3.0,8.0,74,0.00,,,0.00,457,weatherlink.com 1.10,2013-03-27 19:21:00,
2013-03-27 12:36:00,60.8,52.0,30.02,SW,219,3.0,9.0,73,0.00,,,0.00,446,weatherlink.com 1.10,2013-03-27 19:36:00,
2013-03-27 12:51:00,61.1,52.0,30.02,West,261,3.0,9.0,73,0.00,,,0.00,404,weatherlink.com 1.10,2013-03-27 19:51:00,
2013-03-27 13:22:00,60.4,52.0,30.03,SSW,206,6.0,11.0,75,0.00,,,0.00,707,weatherlink.com 1.10,2013-03-27 20:22:00,
2013-03-27 13:37:00,61.3,53.0,30.03,SSW,197,8.0,11.0,74,0.00,,,0.00,512,weatherlink.com 1.10,2013-03-27 20:37:00,
2013-03-27 13:52:00,59.9,53.0,30.02,WSW,247,8.0,11.0,78,0.00,,,0.00,452,weatherlink.com 1.10,2013-03-27 20:52:00,
2013-03-27 14:07:00,60.1,53.0,30.02,WNW,285,8.0,12.0,78,0.00,,,0.00,469,weatherlink.com 1.10,2013-03-27 21:07:00,
2013-03-27 14:22:00,59.8,53.0,30.02,WSW,241,4.0,12.0,79,0.00,,,0.00,471,weatherlink.com 1.10,2013-03-27 21:22:00,
2013-03-27 14:37:00,59.6,53.0,30.02,West,266,4.0,13.0,79,0.00,,,0.00,408,weatherlink.com 1.10,2013-03-27 21:37:00,
2013-03-27 14:52:00,58.1,53.0,30.02,WSW,243,1.0,11.0,82,0.00,,,0.00,167,weatherlink.com 1.10,2013-03-27 21:52:00,
2013-03-27 15:07:00,57.0,53.0,30.02,SSW,201,1.0,14.0,86,0.00,,,0.00,234,weatherlink.com 1.10,2013-03-27 22:07:00,
2013-03-27 15:22:00,57.5,53.0,30.02,WSW,258,5.0,8.0,84,0.00,,,0.00,260,weatherlink.com 1.10,2013-03-27 22:22:00,
2013-03-27 15:37:00,57.8,53.0,30.02,WSW,250,4.0,9.0,83,0.00,,,0.00,279,weatherlink.com 1.10,2013-03-27 22:37:00,
2013-03-27 15:52:00,57.5,52.0,30.02,SSW,210,4.0,13.0,82,0.00,,,0.00,199,weatherlink.com 1.10,2013-03-27 22:52:00,
2013-03-27 16:07:00,57.1,52.0,30.02,West,266,5.0,10.0,83,0.00,,,0.00,171,weatherlink.com 1.10,2013-03-27 23:07:00,
2013-03-27 16:22:00,56.9,53.0,30.02,SW,225,7.0,9.0,85,0.00,,,0.00,165,weatherlink.com 1.10,2013-03-27 23:22:00,
2013-03-27 16:37:00,56.6,52.0,30.02,SSW,192,0.0,10.0,85,0.00,,,0.00,176,weatherlink.com 1.10,2013-03-27 23:37:00,
2013-03-27 16:52:00,56.9,53.0,30.02,West,272,4.0,9.0,85,0.00,,,0.00,169,weatherlink.com 1.10,2013-03-27 23:52:00,
2013-03-27 17:07:00,57.1,53.0,30.02,SW,234,6.0,10.0,85,0.00,,,0.00,90,weatherlink.com 1.10,2013-03-28 00:07:00,
2013-03-27 17:22:00,56.4,52.0,30.01,SW,221,1.0,10.0,86,0.00,,,0.00,123,weatherlink.com 1.10,2013-03-28 00:22:00,
2013-03-27 17:37:00,56.9,53.0,30.01,SW,221,6.0,11.0,85,0.00,,,0.00,137,weatherlink.com 1.10,2013-03-28 00:37:00,
2013-03-27 17:52:00,56.5,52.0,30.02,WSW,247,4.0,11.0,86,0.00,,,0.00,127,weatherlink.com 1.10,2013-03-28 00:52:00,
2013-03-27 18:07:00,56.3,53.0,30.02,West,279,1.0,11.0,87,0.00,,,0.00,77,weatherlink.com 1.10,2013-03-28 01:07:00,
2013-03-27 18:22:00,56.0,52.0,30.01,South,186,1.0,10.0,87,0.00,,,0.00,83,weatherlink.com 1.10,2013-03-28 01:22:00,
2013-03-27 18:37:00,55.8,52.0,30.01,SSW,194,4.0,11.0,88,0.00,,,0.00,49,weatherlink.com 1.10,2013-03-28 01:37:00,
2013-03-27 18:52:00,55.7,52.0,30.02,West,268,5.0,10.0,88,0.00,,,0.00,47,weatherlink.com 1.10,2013-03-28 01:52:00,
2013-03-27 19:07:00,55.0,52.0,30.02,SW,227,4.0,12.0,89,0.00,,,0.00,16,weatherlink.com 1.10,2013-03-28 02:07:00,
2013-03-27 19:22:00,54.6,52.0,30.02,WSW,254,1.0,10.0,90,0.00,,,0.00,0,weatherlink.com 1.10,2013-03-28 02:22:00,
2013-03-27 19:37:00,54.6,52.0,30.03,SW,233,2.0,8.0,90,0.00,,,0.00,0,weatherlink.com 1.10,2013-03-28 02:37:00,
2013-03-27 19:52:00,54.5,52.0,30.03,WNW,292,0.0,10.0,91,0.00,,,0.00,0,weatherlink.com 1.10,2013-03-28 02:52:00,
2013-03-27 20:07:00,54.6,52.0,30.03,WSW,252,1.0,8.0,90,0.00,,,0.00,0,weatherlink.com 1.10,2013-03-28 03:07:00,
2013-03-27 20:22:00,54.5,52.0,30.03,SW,233,0.0,8.0,91,0.00,,,0.00,0,weatherlink.com 1.10,2013-03-28 03:22:00,
2013-03-27 20:37:00,54.6,52.0,30.04,SSW,208,4.0,8.0,91,0.00,,,0.00,0,weatherlink.com 1.10,2013-03-28 03:37:00,
2013-03-27 20:52:00,54.5,52.0,30.04,WSW,256,0.0,6.0,91,0.00,,,0.00,0,weatherlink.com 1.10,2013-03-28 03:52:00,
2013-03-27 21:07:00,54.7,52.0,30.04,SW,223,0.0,4.0,91,0.00,,,0.00,0,weatherlink.com 1.10,2013-03-28 04:07:00,
2013-03-27 21:22:00,55.0,52.0,30.04,West,279,2.0,6.0,90,0.00,,,0.00,0,weatherlink.com 1.10,2013-03-28 04:22:00,
2013-03-27 21:37:00,54.8,52.0,30.05,WSW,256,2.0,5.0,90,0.00,,,0.00,0,weatherlink.com 1.10,2013-03-28 04:37:00,
2013-03-27 21:52:00,54.8,52.0,30.05,SW,220,4.0,4.0,90,0.00,,,0.00,0,weatherlink.com 1.10,2013-03-28 04:52:00,
2013-03-27 22:07:00,54.8,52.0,30.05,SW,234,4.0,5.0,90,0.00,,,0.00,0,weatherlink.com 1.10,2013-03-28 05:07:00,
2013-03-27 22:22:00,54.6,52.0,30.05,SW,214,2.0,5.0,90,0.00,,,0.00,0,weatherlink.com 1.10,2013-03-28 05:22:00,
2013-03-27 22:37:00,54.5,52.0,30.05,SW,216,1.0,3.0,91,0.00,,,0.00,0,weatherlink.com 1.10,2013-03-28 05:37:00,
2013-03-27 22:52:00,54.9,52.0,30.05,WSW,245,2.0,5.0,90,0.00,,,0.00,0,weatherlink.com 1.10,2013-03-28 05:52:00,
2013-03-27 23:07:00,54.7,52.0,30.06,SSW,211,4.0,7.0,90,0.00,,,0.00,0,weatherlink.com 1.10,2013-03-28 06:07:00,
2013-03-27 23:22:00,54.7,52.0,30.06,SW,233,1.0,7.0,90,0.00,,,0.00,0,weatherlink.com 1.10,2013-03-28 06:22:00,
2013-03-27 23:37:00,54.6,52.0,30.06,West,274,3.0,5.0,90,0.00,,,0.00,0,weatherlink.com 1.10,2013-03-28 06:37:00,
2013-03-27 23:52:00,54.5,52.0,30.05,SSW,212,3.0,4.0,90,0.00,,,0.00,0,weatherlink.com 1.10,2013-03-28 06:52:00,